FW1809 Weather Reports


time (UTC)temp
C
wind
direction
speed
KPH
gust
KPH
rain 1hr
cm
rain 24hr
cm
rain mn
cm
humidity
%
barometer
mb
20260502210046 12 188 1.6 12.9 0.00 0.00 0.00 70 1009.9
20260502204546 12 225 4.8 12.9 0.00 0.00 0.00 69 1010.0
20260502203043 12 288 3.2 12.9 0.00 0.00 0.00 73 1010.2
20260502201543 12 234 4.8 14.5 0.00 0.00 0.00 74 1010.2
20260502194600 11 212 0.0 9.7 0.00 0.00 0.00 79 1010.3
20260502193040 10 190 1.6 6.4 0.00 0.00 0.00 80 1010.5
20260502191541 10 249 3.2 14.5 0.00 0.00 0.00 80 1010.6
20260502190040 11 254 4.8 16.1 0.00 0.00 0.00 78 1010.7
20260502184538 13 305 4.8 14.5 0.00 0.00 0.00 72 1010.6
20260502183045 14 163 3.2 9.7 0.00 0.00 0.00 71 1010.3
20260502181534 13 157 1.6 16.1 0.00 0.00 0.00 72 1010.5
20260502163019 11 107 3.2 9.7 0.00 0.00 0.00 84 1011.3
20260502161515 11 178 3.2 9.7 0.00 0.00 0.00 84 1011.3
20260502151513 11 71 0.0 6.4 0.00 0.00 0.00 79 1011.8
20260502130106 8 355 1.6 6.4 0.00 0.00 0.00 90 1011.8
20260502123055 8 288 0.0 3.2 0.00 0.00 0.00 91 1011.9
20260502121601 8 269 0.0 3.2 0.00 0.00 0.00 91 1012.0
20260502120112 8 259 0.0 4.8 0.00 0.00 0.00 90 1012.3
20260502114557 8 269 0.0 0.0 0.00 0.00 0.00 90 1012.3
20260502113111 8 269 1.6 6.4 0.00 0.00 0.00 90 1012.5
20260502111552 8 186 0.0 3.2 0.00 0.00 0.00 90 1012.4
20260502110051 7 186 0.0 6.4 0.00 0.00 0.00 90 1012.2
20260502104548 7 142 0.0 3.2 0.00 0.00 0.00 89 1012.0
20260502103108 7 143 0.0 1.6 0.00 0.00 0.00 88 1011.6
20260502101552 7 137 0.0 0.0 0.00 0.00 0.00 88 1011.5
20260502071535 8 138 0.0 3.2 0.00 0.00 0.00 82 1011.4
20260502070032 8 135 0.0 4.8 0.00 0.00 0.00 82 1011.4
20260502064536 8 138 0.0 1.6 0.00 0.00 0.00 81 1011.3
20260502063029 8 138 0.0 1.6 0.00 0.00 0.00 81 1011.5
20260502061526 8 137 0.0 3.2 0.00 0.00 0.00 80 1011.6
20260502060024 8 157 0.0 4.8 0.00 0.00 0.00 80 1011.8
20260502054524 8 147 0.0 6.4 0.00 0.00 0.00 79 1011.8
20260502053019 8 157 0.0 0.0 0.00 0.00 0.00 79 1011.8
20260502051519 8 153 0.0 4.8 0.00 0.00 0.00 78 1012.0
20260502050015 9 167 1.6 8.0 0.00 0.00 0.00 77 1012.1
20260502044513 9 107 1.6 9.7 0.00 0.00 0.00 77 1012.1
20260502043013 9 167 3.2 6.4 0.00 0.00 0.00 76 1012.3
20260502041508 9 156 1.6 9.7 0.00 0.00 0.00 75 1012.0
20260502040008 9 140 0.0 4.8 0.00 0.00 0.00 75 1012.1
20260502034508 9 143 0.0 8.0 0.00 0.00 0.00 74 1012.3
20260502033008 9 149 0.0 3.2 0.00 0.00 0.00 74 1012.3
20260502031504 9 153 0.0 3.2 0.00 0.00 0.00 73 1012.4
20260502030004 9 147 0.0 3.2 0.00 0.00 0.00 72 1012.3
20260502024503 10 150 0.0 4.8 0.00 0.00 0.00 72 1012.3
20260502023002 10 194 0.0 1.6 0.00 0.00 0.00 71 1012.3
20260502021501 10 169 0.0 9.7 0.00 0.00 0.00 70 1012.3
20260502020002 10 164 0.0 3.2 0.00 0.00 0.00 69 1012.3
20260502014500 10 157 1.6 8.0 0.00 0.00 0.00 69 1012.4
20260502013102 10 182 4.8 12.9 0.00 0.00 0.00 68 1012.4
20260502011559 10 155 1.6 4.8 0.00 0.00 0.00 65 1012.3
20260502010059 11 146 0.0 4.8 0.00 0.00 0.00 63 1012.1
20260502004556 11 140 0.0 8.0 0.00 0.00 0.00 61 1011.8
20260502003056 11 150 3.2 11.3 0.00 0.00 0.00 58 1011.5
20260502001554 12 163 3.2 12.9 0.00 0.00 0.00 51 1011.3
20260502000053 12 161 0.0 4.8 0.00 0.00 0.00 48 1010.9
20260501234554 13 173 1.6 6.4 0.00 0.00 0.00 47 1010.7
20260501233057 13 183 1.6 12.9 0.00 0.00 0.00 46 1010.5
20260501231551 14 180 1.6 9.7 0.00 0.00 0.00 45 1010.4
20260501230051 15 235 0.0 11.3 0.00 0.00 0.00 42 1010.2
20260501224551 15 228 3.2 19.3 0.00 0.00 0.00 40 1010.0
20260501223057 16 240 3.2 19.3 0.00 0.00 0.00 39 1010.0
20260501221550 16 175 1.6 11.3 0.00 0.00 0.00 39 1009.9
20260501220048 16 171 6.4 16.1 0.00 0.00 0.00 39 1009.8
20260501214547 16 262 4.8 16.1 0.00 0.00 0.00 40 1010.1
20260501213051 16 259 6.4 16.1 0.00 0.00 0.00 41 1009.9
20260501211555 16 333 3.2 19.3 0.00 0.00 0.00 42 1009.8